Regional Weather Roundup
Issued by NWS Nashville, TN

Home | Current Version | Previous Version | Text Only | Print | Product List | Glossary On
Versions: 1 2 3 4 5 6 7 8 9 10 11 12 13 14 15 16 17 18 19 20 21 22 23 24 25 26 27 28 29 30 31 32 33 34 35 36 37 38 39 40 41 42 43 44 45 46 47 48 49 50
000
ASUS44 KOHX 210415
RWROHX
MIDDLE TENNESSEE HOURLY WEATHER ROUNDUP
NATIONAL WEATHER SERVICE NASHVILLE TN
1100 PM CDT SUN APR 20 2014

NOTE: "FAIR" INDICATES FEW OR NO CLOUDS BELOW 12,000 FEET WITH
NO SIGNIFICANT WEATHER AND/OR OBSTRUCTIONS TO VISIBILITY.

* THESE REPORTS ARE NOT UNDER NWS QUALITY CONTROL AND MAY NOT
  REPORT WEATHER SUCH AS PRECIPITATION AND FOG.


TNZ005>011-023>034-057-059-062>066-078-080-210500
...NORTHERN MIDDLE TENNESSEE...

CITY           SKY/WX    TMP DP  RH WIND       PRES   REMARKS
BAXTER*          N/A     61  45  55 CALM        N/A
BRENTWOOD*       N/A     50  43  76 CALM        N/A
CASTALIAN SPRG   N/A     54  50  87 CALM        N/A
CLARKSVILLE    CLEAR     60  43  53 CALM      30.11S
COLUMBIA       CLEAR     55  52  88 CALM      30.12R
CROSSVILLE     MOCLDY    57  40  52 CALM      30.18S
GALLATIN         N/A     55  46  71 CALM      30.13S
DICKSON        CLEAR     61  37  41 CALM      30.12S
GOODLETTSVILLE   N/A     61  45  55 CALM        N/A
JOELTON*         N/A     57  46  67 E1          N/A
LAFAYETTE*       N/A     61  39  44 S1          N/A
LIVINGSTON     MOCLDY    61  41  47 CALM      30.15S
MONTEREY         N/A     54  45  71 CALM        N/A
NASHVILLE      PTCLDY    61  48  62 S3        30.12S
OLD HICKORY*     N/A     61  52  72 CALM        N/A
PEGRAM*          N/A    N/A N/A N/A SE1         N/A
PORTLAND       CLEAR     54  46  76 S3        30.12S
SMYRNA         CLEAR     54  49  83 CALM      30.13S
SPARTA         CLEAR     52  48  87 CALM      30.14S
SPRINGFIELD*     N/A     57  48  72 MISG        N/A
WHITE BLUFF*     N/A     64  39  39 SW1         N/A
$$
TNZ056-058-060-061-075>077-079-093>097-210500
...SOUTHERN MIDDLE TENNESSEE...

CITY           SKY/WX    TMP DP  RH WIND       PRES   REMARKS
BELLEVUE*        N/A     57  50  77 CALM        N/A
CULLEOKA*        N/A     55  46  71 CALM        N/A
EAGLEVILLE*      N/A    N/A N/A N/A CALM        N/A
FAYETTEVILLE   CLEAR     59  45  59 CALM      30.15S
HOHENWALD*       N/A     59  48  67 CALM        N/A
LEWISBURG      CLEAR     52  47  83 CALM      30.13S
MANCHESTER*      N/A     52  48  87 CALM        N/A
MCMINNVILLE      N/A     54  48  80 CALM      30.15S
MOUNT PLEASANT   N/A     61  50  67 CALM        N/A
MURFREESBORO   CLEAR     59  48  66 CALM      30.12S
SHELBYVILLE    CLEAR     55  48  76 E5        30.14F
TULLAHOMA      CLEAR     54  45  71 CALM      30.16S
WINCHESTER     CLEAR     54  48  82 S3        30.15F
$$


...KEY TO REMARKS...
VSB - VISIBILITY IN MILES
WCI - WIND CHILL INDEX
HX  - HEAT INDEX




USA.gov is the U.S. government's official web portal to all federal, state and local government web resources and services.